COSMOS 2251 DEB, 37484

Orbit data source: Space-Track

COSMOS 2251 DEB, 37484 is space debris in LEO originally from a launch on Wed, 16 Jun 1993 UTC launched from the Plesetsk Missile And Space Complex (PKMTR). The debris from Iridium 33, an American commercial communications satellite, has been tracked extensively since its accidental collision with the defunct Russian satellite Cosmos 2251 in 2009. This event, occurring at high speed in low Earth orbit (LEO), generated thousands of pieces of space debris, significantly increasing the risk of further collisions. The Iridium 33 debris cloud has impacted space traffic management and orbital debris mitigation strategies, making it a subject of ongoing study in space situational awareness.

Loading next visibility...
Identifier
37484, 1993-036BLM
Orbit
LEO
Country
Flag of CISCIS
Related business
Manufacturer
Unknown
Mission
Spacecraft
Bus & Motor
Unknown
Mass
Unknown
Launch date (UTC)
1993-06-16 (33 years ago)
Launch vehicle
Unknown
Launch site
Plesetsk Missile And Space Complex (PKMTR)
Object type
Payload
Rocket body
Debris
Shape & HBR
Unknown shape, 0.1 m
Radar Cross Section
Small (<0.1 m²)

Expand to show TLE details & history
Last TLE update: 2 days ago

TLE from 2 days ago
0 COSMOS 2251 DEB
1 37484U 93036BLM 26161.88518609  .00001432  00000-0  43467-3 0  9995
2 37484  73.8223 229.9713 0038397 233.0438 248.9885 14.42727281679766
Epoch: 2026-06-10T21:14Z
TLE epoch observation values (Epoch: 2026-06-10T21:14:40.078Z)
Latitude
54.97461°
Longitude
167.7547°
Altitude
768.145 km
Speed
7.47 km/s
True Right ascension
01h 42m 38s
True Declination
54° 48' 47"
Sunlit
Object was in daylight at epoch
Visualization orbit readout
Latitude
Unknown
Longitude
Unknown
Altitude
Unknown
Speed
Unknown
Apparent Right ascension
Unknown
Apparent Declination
Unknown
Sunlit
N/A
Visualization observer readout
Local Sidereal Time
20:53:25
Azimuth
Unknown
Elevation
Unknown
Doppler factor
Unknown
Orbital elements
Apogee altitude
774.496 km
Perigee altitude
719.778 km
Semi-major axis
7,125.274 km
Eccentricity
0.00384
Inclination
73.8223°
RAAN
229.9713°
Arg. of periapsis
233.0438°
True anomaly
248.57847°
Mean anomaly
248.9885°
Eccentric anomaly
248.78341°
Mean motion
3.60862 °/min
Orbital period
99.76 mins
BSTAR
0.00043467

Documentation

Showing up to 5 results
|